TimeEDT,TemperatureF,Dew PointF,Humidity,Sea Level PressureIn,VisibilityMPH,Wind Direction,Wind SpeedMPH,Gust SpeedMPH,PrecipitationIn,Events,Conditions,WindDirDegrees,DateUTC
1:56 AM,54.0,48.9,83,30.19,10.0,WSW,4.6,-,N/A,,Clear,240,2013-08-16 05:56:00
2:56 AM,51.1,48.0,89,30.18,10.0,Calm,Calm,-,N/A,,Clear,0,2013-08-16 06:56:00
3:56 AM,50.0,48.0,93,30.18,7.0,Calm,Calm,-,N/A,,Clear,0,2013-08-16 07:56:00
4:03 AM,48.2,48.2,100,30.18,1.8,Calm,Calm,-,N/A,,Clear,0,2013-08-16 08:03:00
4:12 AM,50.0,46.4,87,30.18,0.5,Calm,Calm,-,N/A,Fog,Fog,0,2013-08-16 08:12:00
4:24 AM,50.0,48.2,94,30.18,1.2,Calm,Calm,-,N/A,,Clear,0,2013-08-16 08:24:00
4:34 AM,48.2,48.2,100,30.18,0.8,Calm,Calm,-,N/A,,Clear,0,2013-08-16 08:34:00
4:40 AM,50.0,48.2,94,30.19,2.0,Calm,Calm,-,N/A,,Clear,0,2013-08-16 08:40:00
4:48 AM,50.0,46.4,87,30.19,1.0,Calm,Calm,-,N/A,,Clear,0,2013-08-16 08:48:00
4:56 AM,48.9,48.0,97,30.19,0.5,Calm,Calm,-,N/A,Fog,Fog,0,2013-08-16 08:56:00
5:00 AM,48.2,48.2,100,30.19,0.2,Calm,Calm,-,N/A,Fog,Fog,0,2013-08-16 09:00:00
5:15 AM,48.2,46.4,93,30.19,0.5,Calm,Calm,-,N/A,Fog,Fog,0,2013-08-16 09:15:00
5:44 AM,46.4,46.4,100,30.20,0.2,Calm,Calm,-,N/A,Fog,Fog,0,2013-08-16 09:44:00
5:56 AM,46.9,46.0,97,30.21,0.2,Calm,Calm,-,N/A,Fog,Fog,0,2013-08-16 09:56:00
6:08 AM,48.2,46.4,93,30.20,0.5,Calm,Calm,-,N/A,Fog,Fog,0,2013-08-16 10:08:00
6:20 AM,48.2,46.4,93,30.21,0.2,Calm,Calm,-,N/A,Fog,Fog,0,2013-08-16 10:20:00
6:35 AM,46.4,46.4,100,30.21,0.2,Calm,Calm,-,N/A,Fog,Fog,0,2013-08-16 10:35:00
6:56 AM,46.0,45.0,96,30.23,0.2,Calm,Calm,-,N/A,Fog,Fog,0,2013-08-16 10:56:00
7:09 AM,48.2,46.4,93,30.22,0.5,Calm,Calm,-,N/A,Fog,Fog,0,2013-08-16 11:09:00
7:19 AM,48.2,46.4,93,30.22,1.0,Calm,Calm,-,N/A,,Clear,0,2013-08-16 11:19:00
7:48 AM,50.0,48.2,94,30.22,2.0,Calm,Calm,-,N/A,,Scattered Clouds,0,2013-08-16 11:48:00
7:56 AM,48.9,48.9,100,30.23,1.2,Calm,Calm,-,N/A,,Mostly Cloudy,0,2013-08-16 11:56:00
8:00 AM,48.2,48.2,100,30.22,0.5,Calm,Calm,-,N/A,Fog,Fog,0,2013-08-16 12:00:00
8:13 AM,51.8,48.2,88,30.22,2.5,Calm,Calm,-,N/A,,Mostly Cloudy,0,2013-08-16 12:13:00
8:15 AM,51.8,50.0,94,30.22,5.0,Calm,Calm,-,N/A,,Scattered Clouds,0,2013-08-16 12:15:00
8:56 AM,54.0,53.1,97,30.24,10.0,Calm,Calm,-,N/A,,Clear,0,2013-08-16 12:56:00
9:56 AM,63.0,46.9,56,30.24,10.0,Calm,Calm,-,N/A,,Mostly Cloudy,0,2013-08-16 13:56:00
10:56 AM,66.0,48.0,52,30.23,10.0,Variable,4.6,-,N/A,,Clear,0,2013-08-16 14:56:00
11:56 AM,66.0,44.1,45,30.23,10.0,Variable,3.5,-,N/A,,Clear,0,2013-08-16 15:56:00
12:56 PM,68.0,46.0,45,30.23,10.0,Variable,5.8,-,N/A,,Clear,0,2013-08-16 16:56:00
1:56 PM,69.1,46.0,44,30.22,10.0,Variable,4.6,-,N/A,,Clear,0,2013-08-16 17:56:00
2:56 PM,69.1,46.9,45,30.23,10.0,Variable,3.5,-,N/A,,Scattered Clouds,0,2013-08-16 18:56:00
3:56 PM,70.0,46.0,42,30.22,10.0,Variable,3.5,-,N/A,,Partly Cloudy,0,2013-08-16 19:56:00
4:56 PM,70.0,46.9,44,30.22,10.0,NNE,3.5,-,N/A,,Clear,30,2013-08-16 20:56:00
5:56 PM,69.1,45.0,42,30.24,10.0,Calm,Calm,-,N/A,,Clear,0,2013-08-16 21:56:00
6:56 PM,69.1,46.0,44,30.24,10.0,Calm,Calm,-,N/A,,Partly Cloudy,0,2013-08-16 22:56:00
7:56 PM,66.0,46.0,48,30.25,10.0,NNE,4.6,-,N/A,,Partly Cloudy,20,2013-08-16 23:56:00
8:56 PM,62.1,48.9,62,30.26,10.0,Calm,Calm,-,N/A,,Clear,0,2013-08-17 00:56:00
9:56 PM,59.0,51.1,75,30.26,10.0,Calm,Calm,-,N/A,,Clear,0,2013-08-17 01:56:00
10:56 PM,55.9,50.0,80,30.27,10.0,Calm,Calm,-,N/A,,Clear,0,2013-08-17 02:56:00
11:56 PM,55.0,50.0,83,30.27,10.0,Calm,Calm,-,N/A,,Clear,0,2013-08-17 03:56:00